User: anonymous   Login
Location: Bacea
(45.9500°N, 22.6667°E)
Time: 18:05:14
(UTC+00:00)
Language:

Cosmos 2263 Rocket - Orbit

View from above orbital plane
View from above orbital plane
View from above satellite
View from above satellite

Ground track
Ground track

The orbit data is extracted from the following two-line orbital elements,

1 22803U 93059B   22023.89579301  .00000094  00000-0  70733-4 0  9999
2 22803  70.9912 305.4719 0017974 337.1112  22.9208 14.16848490466228
Epoch (UTC): 23 January 2022 21:29:56
Eccentricity: 0.0017974
inclination: 70.9912°
perigee height: 823 km
apogee height: 849 km
right ascension of ascending node: 305.4719°
argument of perigee: 337.1112°
revolutions per day: 14.16848490
mean anomaly at epoch: 22.9208°
orbit number at epoch: 46622

The dashed part of the orbit path shows where the satellite is in the earth's shadow,  

DLR